www.pogodaiklimat.ru
ПОГОДА в Сванберге
Время
(UTC), дата
07 11.10
08 11.10
09 11.10
10 11.10
11 11.10
12 11.10
13 11.10
14 11.10
15 11.10
16 11.10
17 11.10
18 11.10
19 11.10
20 11.10
21 11.10
22 11.10
23 11.10
00 12.10
01 12.10
02 12.10
03 12.10
04 12.10
05 12.10
06 12.10
07 12.10
08 12.10
09 12.10
10 12.10
11 12.10
12 12.10
13 12.10
14 12.10
15 12.10
16 12.10
17 12.10
18 12.10
19 12.10
20 12.10
21 12.10
22 12.10
23 12.10
00 13.10
01 13.10
02 13.10
03 13.10
04 13.10
05 13.10
06 13.10
07 13.10
09 13.10
10 13.10
11 13.10
12 13.10
13 13.10
14 13.10
15 13.10
16 13.10
17 13.10
18 13.10
19 13.10
20 13.10
21 13.10
22 13.10
23 13.10
00 14.10
01 14.10
02 14.10
03 14.10
04 14.10
05 14.10
06 14.10
07 14.10
08 14.10
09 14.10
10 14.10
11 14.10
12 14.10
13 14.10
14 14.10
15 14.10
16 14.10
17 14.10
18 14.10
19 14.10
20 14.10
21 14.10
22 14.10
23 14.10
00 15.10
01 15.10
02 15.10
03 15.10
04 15.10
05 15.10
06 15.10
07 15.10
08 15.10
09 15.10
10 15.10
12 15.10
13 15.10
14 15.10
15 15.10
16 15.10
17 15.10
18 15.10
19 15.10
20 15.10
21 15.10
22 15.10
23 15.10
00 16.10
01 16.10
02 16.10
03 16.10
04 16.10
05 16.10
06 16.10
07 16.10
08 16.10
09 16.10
10 16.10
11 16.10
12 16.10
13 16.10
14 16.10
15 16.10
16 16.10
17 16.10
18 16.10
19 16.10
20 16.10
21 16.10
22 16.10
23 16.10
00 17.10
01 17.10
02 17.10
03 17.10
04 17.10
05 17.10
06 17.10
07 17.10
08 17.10
09 17.10
10 17.10
12 17.10
13 17.10
14 17.10
15 17.10
16 17.10
17 17.10
18 17.10
19 17.10
20 17.10
21 17.10
22 17.10
23 17.10
00 18.10
01 18.10
02 18.10
03 18.10
04 18.10
05 18.10
Ветер
(напр.,м/с)
Видим. Явления Облачность Т
(С)
Тd
(С)
f
(%)
Тe
(С)
Тes
(С)
Комфортность P
(гПа)
Po
(гПа)
Тmin
(С)
Tmax
(С)
R
(мм)
R24
(мм)
S
(см)
ЮЗ 2
{6}
20 км 10/10 180 м
[]
+8.3 +7.7 96 +6 +6 тепло 997.8 995.9
ЮЗ 1
{5}
35 км 10/8 360 м
[]
+9.3 +8.0 92 +9 +9 тепло 997.7 995.8
ЮЗ 3
{6}
30 км {дымка} 10/10 450 м
[]
+10.2 +7.6 84 +8 +8 тепло 997.6 995.6
ЮЗ 2
{7}
30 км 10/6 540 м
[]
+10.8 +7.3 79 +10 +10 тепло 997.7 995.7
З 2
{6}
30 км 10/9 800 м
[]
+11.0 +7.0 76 +10 +10 тепло 997.3 995.3
З 2
{8}
28 км {дымка} 10/10 870 м
[]
+11.8 +6.4 69 +11 +11 тепло 997.0 995.1
ЮЗ 2
{7}
30 км 10/4 750 м
[]
+11.6 +7.0 73 +11 +11 тепло 996.6 994.7
ЮЗ 1
{5}
30 км 10/3 700 м
[]
+11.3 +7.4 77 +11 +11 тепло 996.1 994.1
Ю 1
{3}
13 км слаб. дождь 10/10 630 м
[]
+10.2 +8.0 86 +10 +10 тепло 995.5 993.6 0.0
Ю 1
{3}
40 км в посл. час дождь {ливн. осадки} 10/1 500 м
[]
+9.9 +8.1 89 +9 +9 тепло 995.1 993.2
Ю 1
{2}
40 км {ливн. осадки, дождь} 10/10 700 м
[]
+9.3 +8.4 94 +9 +9 тепло 994.7 992.8
ЮВ 1
{3}
35 км {ливн. осадки, дождь} 10/10 480 м
[]
+8.7 +7.8 94 +8 +8 тепло 993.3 991.4 +8.0 +12.6
Ю 1
{4}
30 км 10/4 270 м
[]
+9.2 +8.2 93 +8 +8 тепло 992.8 990.8
Ю 1
{3}
12 км ливневой дождь 10/3 150 м
[]
+9.3 +8.8 97 +9 +9 тепло 991.9 989.9 0.7
штиль 0
{3}
11 км слаб. ливневой дождь {метель} 10/10 300 м
[]
+9.4 +9.0 97 +8 +8 тепло 991.1 989.2 0.2
Ю 1
{3}
14 км в посл. час дождь {ливн. осадки, метель} 9/6 2000 м
[]
+8.8 +8.6 99 +8 +8 тепло 990.6 988.7
ЮЗ 1
{3}
17 км {ливн. осадки, метель} 10/1 1300 м
[]
+9.4 +9.2 99 +9 +9 тепло 990.1 988.2
ЮЗ 2
{3}
19 км в посл. час дождь {ливн. осадки, метель} 10/10 270 м
[]
+9.5 +9.2 98 +8 +8 тепло 989.6 987.6 0.2
З 2
{4}
26 км 10/10 330 м
[]
+9.6 +9.1 97 +8 +8 тепло 989.4 987.5
З 2
{6}
14 км слаб. ливневой дождь 10/5 180 м
[]
+9.4 +8.7 95 +8 +8 тепло 989.2 987.3 0.1
З 2
{7}
5000 м сильн. ливневой дождь ?/? +9.2 +8.9 98 +7 +7 тепло 989.3 987.4 3
ЮЗ 2
{6}
16 км в посл. час дождь {ливн. осадки} 10/1 180 м
[]
+8.8 +8.4 97 +7 +7 тепло 989.5 987.6 0.2
З 3
{6}
22 км {ливн. осадки, дождь} 10/4 210 м
[]
+8.7 +8.1 96 +6 +6 тепло 990.1 988.1
З 2
{6}
21 км {ливн. осадки, дождь} 10/10 240 м
[]
+8.6 +8.2 97 +7 +7 тепло 990.7 988.8 +8.3 +9.7
З 2
{5}
27 км 10/3 400 м
[]
+9.0 +8.3 95 +7 +7 тепло 991.4 989.5
З 2
{4}
19 км слаб. ливневой дождь 10/3 240 м
[]
+9.4 +8.6 95 +8 +8 тепло 992.3 990.3
З 2
{4}
12 км в посл. час дождь {ливн. осадки} 10/10 270 м
[]
+9.9 +9.0 94 +8 +9 тепло 992.8 990.9
З 2
{6}
15 км {ливн. осадки, дождь} 10/1 330 м
[]
+10.4 +8.8 90 +9 +10 тепло 993.4 991.5
З 2
{6}
15 км {ливн. осадки, дождь} 10/1 480 м
[]
+10.9 +8.8 87 +10 +11 тепло 994.0 992.1
З 2
{5}
14 км {ливн. осадки, дождь} 10/10 930 м
[]
+10.9 +8.3 84 +10 +10 тепло 994.5 992.6
З 1
{5}
16 км 10/1 660 м
[]
+11.3 +8.9 85 +11 +12 тепло 994.8 992.9
СЗ 1
{3}
9000 м дождь ?/? +10.5 +9.5 94 +10 +10 тепло 994.8 992.9 1
ЮЗ 2
{6}
10 км ливневой дождь 10/10 90 м
[]
+9.7 +8.8 94 +8 +8 тепло 995.3 993.3 0.9
Ю 1
{3}
21 км в посл. час дождь {ливн. осадки} 10/10 1500 м
[]
+9.1 +8.6 97 +8 +8 тепло 995.5 993.6 0.1
ЮЗ 1
{2}
14 км {ливн. осадки, дождь} 10/6 1470 м
[]
+9.5 +9.2 98 +9 +9 тепло 995.6 993.6
ЮЗ 1
{3}
19 км {ливн. осадки, дождь} 10/10 1170 м
[]
+9.8 +8.6 92 +9 +9 тепло 995.6 993.6 +8.6 +11.3
ЮЗ 1
{3}
10 км ливневой дождь 10/1 90 м
[]
+9.4 +8.4 93 +9 +9 тепло 995.8 993.9 0.3
Ю 1
{4}
19 км в посл. час дождь {ливн. осадки} 10/1 450 м
[]
+9.2 +8.3 94 +8 +8 тепло 996.1 994.2 0.1
ЮЗ 2
{7}
18 км {ливн. осадки, дождь} 10/10 420 м
[]
+9.8 +8.8 93 +8 +8 тепло 996.4 994.4
ЮЗ 2
{6}
30 км {ливн. осадки, дождь} 10/8 500 м
[]
+9.9 +8.7 92 +8 +8 тепло 996.6 994.7
ЮЗ 2
{6}
35 км {ливн. осадки, дождь} 10/3 450 м
[]
+9.9 +8.6 92 +8 +8 тепло 997.3 995.4
ЮЗ 2
{6}
26 км {ливн. осадки, дождь} 10/10 450 м
[]
+9.8 +8.4 91 +8 +8 тепло 997.5 995.6
ЮЗ 3
{7}
6000 м дождь 10/10 90 м
[]
+9.5 +8.8 95 +7 +7 тепло 998.0 996.1 0.5
З 2
{5}
35 км слаб. ливневой дождь 10/4 1380 м
[]
+8.8 +8.1 95 +7 +7 тепло 998.8 996.8 0.4
З 2
{5}
40 км в посл. час дождь {ливн. осадки} 10/10 210 м
[]
+8.5 +7.9 96 +6 +6 тепло 999.7 997.8 0.0
З 3
{6}
50 км {ливн. осадки, дождь} 10/9 240 м
[]
+8.6 +7.7 94 +6 +6 тепло 1000.7 998.8
З 1
{6}
50 км {ливн. осадки, дождь} 10/9 210 м
[]
+8.3 +7.4 94 +7 +7 тепло 1001.7 999.8
З 1
{4}
50 км {ливн. осадки, дождь} 10/10 180 м
[]
+7.7 +7.1 96 +7 +7 тепло 1002.8 1000.8 +7.7 +10.0
СЗ 2
{5}
45 км 9/8 210 м
[]
+7.8 +6.8 93 +6 +6 тепло 1004.0 1002.0
З 1
{4}
45 км ясно +8.6 +5.6 81 +8 +10 тепло 1006.1 1004.2
З 2
{3}
50 км ясно +9.4 +5.3 76 +8 +10 тепло 1006.9 1005.0
З 1
{4}
45 км 5/5 660 м
[]
+10.5 +6.0 74 +10 +12 тепло 1007.6 1005.7
З 2
{4}
40 км 5/5 720 м
[]
+11.0 +5.9 71 +10 +11 тепло 1008.3 1006.4
З 1
{4}
50 км ясно +11.4 +5.4 67 +11 +13 тепло 1008.7 1006.7
СЗ 1
{3}
13 км 5/5 930 м
[]
+11.7 +6.2 69 +12 +12 тепло 1009.5 1007.6
штиль 0
{3}
45 км 6/0
[]
+7.6 +5.8 88 +7 +7 тепло 1010.0 1008.0
штиль 0
{1}
2700 м ясно +4.2 +3.3 94 +3 +3 по сезону 1010.1 1008.1
штиль 0 2600 м дымка ясно +1.9 +1.4 96 +1 +1 по сезону 1010.6 1008.6
штиль 0
{1}
400 м туман {дымка} ясно +1.4 +1.0 97 0 0 по сезону 1010.7 1008.6 +1.0 +11.8
штиль 0
{1}
1100 м в посл. час туман ясно +0.9 +0.7 99 -1 -1 по сезону 1010.6 1008.6
В 1
{2}
23 км в посл. час туман 10/6 960 м
[]
+2.8 +2.6 99 +1 +1 по сезону 1010.7 1008.6
штиль 0
{2}
21 км {туман, метель} 10/10 1500 м
[]
+4.1 +3.9 99 +3 +3 по сезону 1010.5 1008.5
В 1
{2}
21 км {туман, метель} 10/1 1020 м
[]
+4.5 +4.3 99 +3 +3 по сезону 1009.5 1007.5
В 1
{2}
16 км {туман, метель} 10/3 1500 м
[]
+4.7 +4.5 99 +3 +3 по сезону 1008.5 1006.5
В 2
{3}
24 км {туман, метель} 10/10 1500 м
[]
+6.4 +6.3 99 +4 +4 по сезону 1007.5 1005.6
В 1
{2}
12 км слаб. дождь 10/9 60 м
[]
+7.2 +7.0 99 +6 +6 тепло 1006.6 1004.7 0.1
ЮВ 1
{3}
5000 м дождь ?/? +8.5 +8.4 99 +8 +8 тепло 1005.2 1003.3 2
В 1
{2}
11 км слаб. дождь 10/10 210 м
[]
+8.7 +8.5 99 +8 +8 тепло 1004.2 1002.2 1
ЮВ 2
{7}
12 км слаб. дождь 10/3 150 м
[]
+8.5 +8.2 98 +6 +6 тепло 1003.5 1001.5 2
В 2
{3}
6000 м дождь 10/10 90 м
[]
+8.2 +8.0 99 +6 +6 тепло 1003.4 1001.4 2
В 3
{6}
14 км дождь 10/10 180 м
[]
+8.1 +7.6 97 +5 +5 тепло 1002.8 1000.8 +0.8 +8.8 2
СВ 3
{6}
19 км дождь 10/1 700 м
[]
+7.9 +7.2 95 +5 +5 тепло 1002.5 1000.5 1
СВ 3
{5}
18 км дождь 10/3 270 м
[]
+8.1 +7.5 96 +5 +6 тепло 1003.1 1001.2 1
СВ 3
{7}
12 км дождь ?/? +7.8 +7.1 95 +5 +5 тепло 1003.7 1001.8 2
СВ 3
{6}
17 км слаб. дождь 10/10 210 м
[]
+8.5 +7.7 95 +6 +6 тепло 1004.4 1002.5 0.9
СВ 2
{7}
30 км слаб. дождь 10/0
[]
+8.8 +7.9 94 +7 +8 тепло 1005.7 1003.7 0.1
СВ 3
{6}
50 км в посл. час дождь {метель} 10/0
[]
+9.0 +7.4 90 +6 +7 тепло 1006.5 1004.5 0.0
СВ 2
{7}
50 км 10/0
[]
+9.1 +7.2 88 +7 +8 тепло 1008.8 1006.8
СВ 3
{5}
50 км 10/0
[]
+8.9 +6.9 87 +6 +7 тепло 1010.5 1008.6
СВ 1
{6}
50 км 10/0
[]
+7.9 +6.3 90 +7 +7 тепло 1011.6 1009.6
штиль 0
{3}
45 км 10/3 420 м
[]
+6.7 +5.9 95 +6 +6 тепло 1013.2 1011.2
штиль 0
{2}
45 км 10/10 800 м
[]
+7.6 +6.7 94 +7 +7 тепло 1014.4 1012.4
штиль 0
{3}
50 км 10/10 870 м
[]
+7.5 +6.2 91 +7 +7 тепло 1015.2 1013.2 +6.7 +9.9
штиль 0
{2}
18 км 10/1 480 м
[]
+5.6 +4.7 94 +4 +4 по сезону 1016.2 1014.1
СЗ 1
{1}
500 м туман 6/0
[]
+3.7 +3.5 99 +2 +2 по сезону 1017.1 1015.0
СЗ 1
{2}
5000 м в посл. час туман 5/5 90 м
[]
+1.6 +1.4 99 -0 -0 по сезону 1017.7 1015.7
штиль 0
{1}
800 м туман 5/5 90 м
[]
+1.3 +1.0 98 -0 -0 по сезону 1018.5 1016.5
штиль 0
{1}
1300 м в посл. час туман 1/0
[]
+0.7 +0.5 99 -1 -1 по сезону 1018.8 1016.8
штиль 0
{1}
6000 м в посл. час туман 10/10 900 м
[]
+1.3 +1.2 99 -0 -0 по сезону 1019.3 1017.2
штиль 0
{1}
17 км 10/10 800 м
[]
+3.0 +2.9 99 +2 +2 по сезону 1019.5 1017.5
штиль 0
{1}
23 км 10/10 800 м
[]
+3.7 +3.5 99 +2 +2 по сезону 1019.4 1017.4
штиль 0
{2}
22 км {дымка} 10/10 800 м
[]
+4.2 +4.0 99 +3 +3 по сезону 1019.9 1017.8
штиль 0
{1}
25 км 10/10 800 м
[]
+4.5 +4.3 99 +3 +3 по сезону 1019.8 1017.8
В 1
{2}
27 км 10/10 870 м
[]
+4.6 +4.4 99 +3 +3 по сезону 1019.7 1017.7
ЮВ 1
{2}
35 км {дымка} 10/10 800 м
[]
+4.8 +4.6 99 +3 +3 по сезону 1019.3 1017.2 +0.3 +7.5
В 1
{2}
45 км 10/10 660 м
[]
+5.3 +5.2 99 +4 +4 по сезону 1019.9 1017.8
В 1
{2}
50 км 10/10 800 м
[]
+6.2 +5.9 98 +5 +5 тепло 1019.7 1017.7
В 1
{3}
50 км 10/10 800 м
[]
+7.5 +6.6 94 +6 +6 тепло 1019.6 1017.6
В 2
{2}
50 км 10/10 930 м
[]
+8.5 +6.7 88 +7 +7 тепло 1019.5 1017.6
В 2
{3}
50 км 10/10 570 м
[]
+8.7 +6.5 86 +7 +8 тепло 1019.1 1017.1
В 3
{3}
17 км слаб. дождь 10/10 900 м
[]
+8.1 +7.0 93 +5 +5 тепло 1018.2 1016.2 0.4
В 2
{6}
30 км слаб. дождь 10/10 570 м
[]
+7.7 +6.6 93 +6 +6 тепло 1017.7 1015.7 0.1
В 2
{5}
13 км дождь 10/10 800 м
[]
+7.3 +6.4 94 +5 +5 тепло 1017.3 1015.3 0.8
В 3
{6}
8000 м дождь 10/10 90 м
[]
+7.0 +6.5 97 +4 +4 по сезону 1016.5 1014.5 4
В 3
{6}
14 км слаб. дождь 10/8 180 м
[]
+7.2 +6.6 96 +4 +4 по сезону 1016.0 1014.0 2
В 3
{7}
30 км в посл. час дождь {метель} 10/10 330 м
[]
+7.5 +6.7 95 +4 +4 по сезону 1015.7 1013.7 0.8
В 3
{7}
40 км 10/10 420 м
[]
+7.8 +6.8 93 +5 +5 тепло 1014.9 1012.9
В 4
{8}
17 км слаб. ливневой дождь 10/10 300 м
[]
+8.2 +7.2 93 +5 +5 тепло 1014.6 1012.6
В 3
{7}
1900 м слаб. ливневой дождь 10/10 90 м
[]
+8.2 +7.7 97 +5 +5 тепло 1013.9 1011.9 0.1
В 3
{7}
1600 м слаб. морось {дождь} 10/10 90 м
[]
+8.4 +8.1 98 +6 +6 тепло 1013.5 1011.5 0.3
В 3
{6}
1700 м слаб. морось {дождь} 10/10 60 м
[]
+8.5 +8.3 99 +6 +6 тепло 1012.6 1010.7 0.3
В 3
{6}
1900 м в посл. час морось {ливн. осадки, дождь} 10/10 90 м
[]
+8.7 +8.5 99 +6 +6 тепло 1012.3 1010.4 0.2
В 3
{7}
2400 м дымка 10/10 60 м
[]
+8.6 +8.5 99 +6 +6 тепло 1011.3 1009.3
В 3
{7}
2800 м дымка 10/10 90 м
[]
+8.7 +8.5 99 +6 +6 тепло 1011.1 1009.1
В 3
{7}
3300 м дымка 10/10 90 м
[]
+8.7 +8.5 99 +6 +6 тепло 1010.4 1008.4
В 3
{6}
4400 м дымка 10/10 60 м
[]
+8.7 +8.5 99 +6 +6 тепло 1010.1 1008.1
В 3
{6}
4800 м дымка 10/10 60 м
[]
+8.7 +8.5 99 +6 +6 тепло 1009.9 1007.9
В 2
{5}
11 км {дымка} 10/10 120 м
[]
+8.8 +8.6 99 +7 +7 тепло 1009.8 1007.8 +8.8
В 2
{4}
20 км 10/8 180 м
[]
+8.7 +8.4 98 +7 +7 тепло 1009.9 1007.9
В 3
{4}
45 км 10/10 330 м
[]
+8.7 +7.7 93 +6 +6 тепло 1009.7 1007.7
СВ 2
{4}
19 км 10/10 180 м
[]
+8.7 +7.9 95 +7 +7 тепло 1009.0 1007.0
СВ 3
{6}
1900 м дымка 10/10 90 м
[]
+8.7 +8.3 97 +6 +6 тепло 1009.0 1007.1
СВ 4
{7}
3100 м дымка 10/10 90 м
[]
+8.9 +8.7 99 +6 +6 тепло 1008.6 1006.7
В 4
{7}
2700 м дымка 10/10 90 м
[]
+8.8 +8.4 97 +6 +6 тепло 1008.4 1006.5
СВ 4
{7}
2000 м дымка 10/10 90 м
[]
+8.4 +8.0 97 +5 +5 тепло 1008.6 1006.6
СВ 3
{8}
3900 м в посл. час дождь {ливн. осадки, метель} 10/10 90 м
[]
+8.0 +7.6 97 +5 +5 тепло 1008.7 1006.7 0.6
СВ 3
{6}
4600 м дымка {ливн. осадки} 10/10 90 м
[]
+7.7 +7.3 97 +5 +5 тепло 1008.2 1006.2
СВ 4
{6}
3200 м дымка {ливн. осадки} 10/10 60 м
[]
+7.5 +7.2 98 +4 +4 по сезону 1008.4 1006.4
СВ 4
{6}
2100 м дымка {ливн. осадки} 10/10 30 м
[]
+7.5 +7.3 99 +4 +4 по сезону 1008.1 1006.1
СВ 2
{5}
2800 м слаб. морось 10/10 90 м
[]
+7.7 +7.5 99 +5 +5 тепло 1008.0 1006.0 +7.5 +9.0 0.2
СВ 2
{4}
2800 м морось {дождь} ?/? +7.5 +7.4 99 +5 +5 тепло 1007.7 1005.7 0.3
СВ 2
{4}
1900 м в посл. час морось {дождь} 10/10 60 м
[]
+7.4 +7.3 99 +5 +5 тепло 1007.6 1005.6 0.1
СВ 3
{5}
1900 м дымка {дождь} 10/10 60 м
[]
+7.2 +7.0 99 +4 +4 по сезону 1007.4 1005.4
СВ 3
{6}
2200 м дымка {дождь} 10/10 60 м
[]
+7.0 +6.9 99 +4 +4 по сезону 1007.2 1005.2
СВ 2
{6}
2200 м дымка {дождь} 10/10 60 м
[]
+6.9 +6.8 99 +4 +4 по сезону 1007.1 1005.1
СВ 3
{5}
2400 м дымка {дождь} 10/10 60 м
[]
+6.9 +6.7 99 +4 +4 по сезону 1007.1 1005.1
СВ 2
{5}
3400 м дымка 10/10 90 м
[]
+6.8 +6.6 99 +4 +4 по сезону 1006.8 1004.8
СВ 2
{4}
2200 м дымка 10/10 60 м
[]
+6.7 +6.5 99 +4 +4 по сезону 1006.9 1004.9
СВ 1
{3}
2700 м дымка 10/10 60 м
[]
+6.8 +6.6 99 +6 +6 тепло 1006.8 1004.8
СВ 2
{3}
3100 м дымка 10/10 60 м
[]
+6.7 +6.6 99 +4 +4 по сезону 1006.5 1004.5
СВ 1
{4}
3700 м дымка 10/10 60 м
[]
+6.7 +6.6 99 +5 +5 тепло 1006.6 1004.7
СВ 2
{4}
7000 м в посл. час дождь {ливн. осадки} 10/10 60 м
[]
+6.8 +6.6 99 +4 +4 по сезону 1006.8 1004.8 +6.7 +7.7 0.7
СВ 1
{4}
8000 м морось {дымка} 10/10 90 м
[]
+6.8 +6.6 99 +6 +6 тепло 1007.4 1005.5 0.2
СВ 1
{3}
9000 м дождь {морось} 10/10 90 м
[]
+7.0 +6.7 98 +6 +6 тепло 1007.7 1005.7 0.7
СВ 2
{3}
9000 м морось {дождь} 10/10 90 м
[]
+7.1 +6.8 98 +5 +5 тепло 1008.0 1006.0 0.5
С 1
{4}
7000 м в посл. час морось {дождь} 10/10 60 м
[]
+7.3 +7.1 99 +6 +6 тепло 1008.5 1006.5
С 1
{3}
21 км {дождь, морось} 10/10 120 м
[]
+7.6 +7.2 97 +7 +7 тепло 1009.1 1007.1
С 1
{2}
5000 м 10/10 90 м
[]
+7.5 +7.2 98 +6 +6 тепло 1009.3 1007.3
С 1
{3}
5000 м дымка 10/10 60 м
[]
+7.4 +7.2 99 +6 +6 тепло 1009.6 1007.7
СЗ 1
{3}
5000 м дымка 10/10 60 м
[]
+7.3 +7.1 99 +6 +6 тепло 1010.1 1008.1
штиль 0
{2}
2500 м дымка 10/9 60 м
[]
+7.2 +7.0 99 +6 +6 тепло 1010.5 1008.5
С 1
{2}
1300 м дымка ?/? +7.0 +6.8 99 +6 +6 тепло 1010.5 1008.5
СВ 1
{2}
8000 м дымка 10/10 60 м
[]
+6.9 +6.8 99 +6 +6 тепло 1010.8 1008.8 +6.8 +7.8
штиль 0
{1}
6000 м дымка 10/10 60 м
[]
+6.9 +6.8 99 +6 +6 тепло 1010.7 1008.7
штиль 0
{1}
4500 м дымка 10/8 60 м
[]
+6.9 +6.7 99 +6 +6 тепло 1011.1 1009.1
штиль 0
{1}
3600 м дымка ?/? +6.9 +6.8 99 +6 +6 тепло 1011.1 1009.1
штиль 0
{1}
400 м туман {дымка} ?/? +6.9 +6.8 99 +6 +6 тепло 1011.3 1009.3
штиль 0
{1}
300 м туман {дымка} ?/? +6.9 +6.7 99 +6 +6 тепло 1011.0 1009.0
штиль 0
{1}
4800 м в посл. час туман 10/10 150 м
[]
+6.9 +6.8 99 +6 +6 тепло 1011.0 1009.0
В 1
{1}
200 м туман {дымка} ?/? +7.0 +6.8 99 +6 +6 тепло 1010.8 1008.8 0.1
В 1
{2}
100 м туман {дымка} ?/? +7.0 +6.8 99 +6 +6 тепло 1010.6 1008.6
В 1
{2}
400 м туман {дымка} ?/? +7.1 +7.0 99 +6 +6 тепло 1010.5 1008.5
штиль 0
{1}
500 м морось {дождь} ?/? +7.4 +7.2 99 +6 +6 тепло 1010.1 1008.1 0.1
В 1
{2}
2400 м в посл. час дождь {ливн. осадки} ?/? +7.8 +7.7 99 +7 +7 тепло 1009.8 1007.8
Местоположение метеостанции Сванберга (Швеция): широта 59.83 долгота 18.63 высота над уровнем моря 16 м.
В архиве по умолчанию представлена погода в Сванберге за последнюю неделю. Архивные данные за месяц целиком и за предыдущие месяцы, начиная с января 2011 года, Вы можете получить, выбрав интересующий диапазон дат из раскрывающегося списка и нажав кнопку "Найти!".
*Определитесь, кто Вы:
Внимание! Время в таблицах - всемирное. Для получения местного времени необходимо прибавить поправку, которая равна 1 ч.
Смотрите также архив погоды в соседних городах и на ближайших метеорологических станциях:
Партнеры нашего сайта:      
Пояснения к столбцам:
  • Ветер - указаны скорость ветра в м/с - средняя за 10 мин, порывы в срок и между сроками (в фигурных скобках) и направление, откуда дует ветер: С - северный,
  • СВ - северо-восточный, В - восточный, ЮВ - юго-восточный, Ю - южный, ЮЗ - юго-западный, З - западный, СЗ - северо-западный.
  • Видимость - горизонтальная дальность видимости в метрах или километрах. При видимости от 1 до 10 км при отсутствии осадков обычно наблюдается дымка, при ухудшении видимости до 1 км и менее - туман. В сухую погоду видимость может ухудшаться дымом, пылью или мглою.
  • Явления - указаны атмосферные явления, наблюдавшиеся в срок или в последний час перед сроком; фигурными скобками обозначены явления, наблюдавшиеся между сроками (за 1-3 часа до срока); квадратными скобками обозначены град или гололедные отложения с указанием их диаметра в мм.
  • Облачность - указаны через наклонную черту общая и нижняя облачность в баллах и высота нижней границы облаков в метрах; квадратными скобками обозначены формы облаков: Ci - перистые, Cs - перисто-слоистые, Cc - перисто-кучевые, Ac - высококучевые, As - высокослоистые, Sc - слоисто-кучевые, Ns - слоисто-дождевые, Cu - кучевые, Cb - кучево-дождевые. Подробнее классификацию облаков см. в Атласе облаков (PDF).
  • T - Температура воздуха - температура, измеренная на высоте 2 м над землей.
  • Td - Температура точки росы - температура, при понижении до которой содержащийся в воздухе водяной пар достигнет насыщения.
  • f - Относительная влажность воздуха - влажноcть воздуха, измеренная на высоте 2 м над землей.
  • Te - Эффективная температура - температура, которую ощущает одетый по сезону человек в тени. Характеристика душности погоды. При расчете учитывается влияние влажности воздуха и скорости ветра на теплоощущения человека.
  • Tes - Эффективная температура на солнце - температура, которую ощущает человек, с поправкой на солнечный нагрев. Характеристика знойности погоды. Зависит от высоты солнца над горизонтом, облачности и скорости ветра. Ночью, в пасмурную погоду, а также при ветре 12 м/с и более поправка равна нулю.
  • P - Атмосферное давление - приведенное к уровню моря атмосферное давление.
  • Po - Атмосферное давление - измеренное на уровне метеостанции атмосферное давление.
  • Tmin - Минимальная температура - минимум температуры воздуха на высоте 2 м над землей.
  • Tmax - Максимальная температура - максимум температуры воздуха на высоте 2 м над землей.
  • R - Количество осадков - Количество выпавших осадков за период времени, мм. При наведении курсора мыши на число - период времени, за который выпало указанное количество осадков.
  • R24 - Количество осадков - Количество выпавших осадков за 24 часа, мм.
  • S - Снежный покров - Высота снежного покрова, см. При наведении курсора мыши на число - состояние снежного покрова и степень покрытия местности в баллах.